Tracking 19832 objects as of 25-Aug-2019
HD Live streaming from Space Station
objects crossing your sky now

THORAD DELTA 1 DEB

Track THORAD DELTA 1 DEB now!
10-day predictions


NORAD ID: 42592
Int'l Code: 1974-089CW
Perigee: 1,445.1 km
Apogee: 1,497.8 km
Inclination: 101.5 °
Period: 115.2 minutes
Semi major axis: 7842 km
RCS: Unknown
Launch date: November 15, 1974
Source: United States (US)
Launch site: AIR FORCE WESTERN TEST RANGE (AFWTR)

Note: This is SATELLITE DEBRIS
aabbcc
Your satellite tracking list
Your tracking list is empty




NASA's NSSDC Master Catalog

Two Line Element Set (TLE):
1 42592U 74089CW  19235.83576470 -.00000010 +00000-0 +21564-3 0  9993
2 42592 101.5277 199.9563 0033608 341.9962 017.9917 12.50050009221666
Source of the keplerian elements: AFSPC